Location: Unspecified
(43.4680°N, 87.1740°E)
Time: 18:11:28
(UTC+00:00)

Cosmos 2154 Rocket - Visible Passes

Search period start: 31 July 2021 00:00
Search period end: 10 August 2021 00:00
Orbit: 966 x 997 km, 82.9° (Epoch: 31 July)

Date Brightness Start Highest point End Pass type
(mag) Time Alt. Az. Time Alt. Az. Time Alt. Az.
31 Jul 5.5 18:33:00 21° ESE 18:34:25 23° E 18:39:08 10° NE visible
31 Jul 4.2 20:17:48 43° SW 20:19:27 56° WNW 20:25:34 10° N visible
01 Aug 4.7 19:00:08 39° ESE 19:01:12 42° E 19:07:00 10° NNE visible
01 Aug 5.0 20:44:56 26° WSW 20:46:50 31° WNW 20:52:17 10° N visible
02 Aug 6.2 17:42:28 10° E 17:43:48 11° ENE 17:45:21 10° ENE visible
02 Aug 3.9 19:27:16 65° SSE 19:28:10 78° E 19:34:24 10° N visible
02 Aug 5.7 21:12:03 14° W 21:14:25 17° WNW 21:18:26 10° NNW visible
03 Aug 5.6 18:09:35 21° E 18:10:22 22° E 18:14:55 10° NE visible
03 Aug 4.1 19:54:22 53° WSW 19:55:20 59° WNW 20:01:30 10° N visible
04 Aug 4.7 18:36:40 39° E 18:37:08 40° E 18:42:52 10° NNE visible
04 Aug 4.9 20:21:28 30° W 20:22:41 33° WNW 20:28:15 10° N visible
05 Aug 6.2 17:19:15 10° E 17:19:46 10° ENE 17:20:18 10° ENE visible
05 Aug 3.9 19:03:46 72° ESE 19:04:04 73° E 19:10:18 10° NNE visible
05 Aug 5.6 20:48:33 17° W 20:50:16 18° WNW 20:54:29 10° NNW visible
06 Aug 5.6 17:46:03 20° E 17:46:19 20° E 17:50:42 10° NE visible
06 Aug 4.0 19:30:50 62° W 19:31:12 63° W 19:37:25 10° N visible
07 Aug 4.8 18:13:07 37° E 18:13:07 37° E 18:18:42 10° NNE visible
07 Aug 4.8 19:57:54 34° W 19:58:34 35° WNW 20:04:13 10° N visible
08 Aug 4.0 18:40:10 68° E 18:40:10 68° E 18:46:11 10° NNE visible
08 Aug 5.6 20:24:57 19° W 20:26:06 20° WNW 20:30:31 10° NNW visible
09 Aug 5.7 17:22:25 19° E 17:22:25 19° E 17:26:28 10° NE visible
09 Aug 4.0 19:07:13 67° WNW 19:07:13 67° WNW 19:13:20 10° N visible
09 Aug 6.1 20:52:51 10° WNW 20:53:55 10° WNW 20:54:58 10° NW visible
